Location: Shenandoah County Park
(38.9356°N, 78.4524°W)
Time: 02:48:53
(UTC-04:00)

Envisat - Visible Passes

Search period start: 03 October 2023 00:00
Search period end: 13 October 2023 00:00
Orbit: 763 x 764 km, 98.2° (Epoch: 02 October)

Date Brightness Start Highest point End Pass type
(mag) Time Alt. Az. Time Alt. Az. Time Alt. Az.
03 Oct 5.2 03:52:08 10° NE 03:55:52 21° E 03:55:52 21° E visible
03 Oct 3.3 05:30:16 10° N 05:35:02 42° WNW 05:36:02 38° W visible
04 Oct 2.9 04:52:50 10° NNE 04:57:57 84° ESE 04:58:16 78° SSE visible
04 Oct 4.8 06:34:31 10° NW 06:36:10 12° WNW 06:37:50 10° W visible
05 Oct 4.3 04:15:59 10° NNE 04:20:29 36° E 04:20:29 36° E visible
05 Oct 4.0 05:55:20 10° NNW 05:59:26 25° WNW 06:00:39 23° W visible
06 Oct 5.6 03:40:09 10° NE 03:42:43 15° E 03:42:43 15° E visible
06 Oct 3.0 05:17:30 10° N 05:22:28 56° WNW 05:22:52 54° W visible
07 Oct 3.3 04:40:16 10° NNE 04:45:06 63° E 04:45:06 63° E visible
07 Oct 4.6 06:20:53 10° NNW 06:23:43 15° WNW 06:25:15 13° W visible
08 Oct 4.9 04:03:39 10° NE 04:07:18 26° E 04:07:18 26° E visible
08 Oct 3.6 05:42:25 10° N 05:46:54 32° WNW 05:47:28 32° W visible
09 Oct 5.9 03:28:44 10° ENE 03:29:32 11° E 03:29:32 11° E visible
09 Oct 2.9 05:04:48 10° N 05:09:41 73° NW 05:09:41 73° NW visible
10 Oct 4.0 04:27:45 10° NNE 04:31:54 44° ENE 04:31:54 44° ENE visible
10 Oct 4.3 06:07:41 10° NNW 06:11:15 20° WNW 06:12:04 19° WNW visible
11 Oct 5.3 03:51:27 10° NE 03:54:06 19° ENE 03:54:06 19° ENE visible
11 Oct 3.3 05:29:35 10° N 05:34:16 42° WNW 05:34:16 42° WNW visible
12 Oct 3.2 04:52:09 10° NNE 04:56:28 64° NNE 04:56:28 64° NNE visible
12 Oct 4.8 06:33:52 10° NW 06:35:29 11° WNW 06:36:38 11° WNW visible
